Time,TemperatureF,DewpointF,PressureIn,WindDirection,WindDirectionDegrees,WindSpeedMPH,WindSpeedGustMPH,Humidity,HourlyPrecipIn,Conditions,Clouds,dailyrainin,SolarRadiationWatts/m^2,SoftwareType,DateUTC
2013-02-16 00:01:00,35.0,28.0,-100.00,West,280,2.0,4.0,76,0.00,,,0.00,0.000000,,2013-02-16 08:01:00,
2013-02-16 00:11:00,35.0,28.0,-100.00,West,280,2.0,4.0,76,0.00,,,0.00,0.000000,,2013-02-16 08:11:00,
2013-02-16 00:32:00,42.0,26.0,-100.00,SW,230,5.0,14.0,52,0.00,,,0.00,0.000000,,2013-02-16 08:32:00,
2013-02-16 00:42:00,42.0,26.0,-100.00,SW,230,5.0,14.0,52,0.00,,,0.00,0.000000,,2013-02-16 08:42:00,
2013-02-16 00:52:00,42.0,26.0,-100.00,SW,230,5.0,14.0,52,0.00,,,0.00,0.000000,,2013-02-16 08:52:00,
2013-02-16 01:01:00,42.0,26.0,-100.00,SW,230,5.0,14.0,52,0.00,,,0.00,0.000000,,2013-02-16 09:01:00,
2013-02-16 01:42:00,46.0,26.0,-100.00,SW,220,6.0,12.0,45,-99.99,,,0.00,0.000000,,2013-02-16 09:42:00,
2013-02-16 01:52:00,46.0,26.0,-100.00,SW,220,6.0,12.0,45,-99.99,,,0.00,0.000000,,2013-02-16 09:52:00,
2013-02-16 02:01:00,46.0,26.0,-100.00,SW,220,6.0,12.0,45,-99.99,,,0.00,0.000000,,2013-02-16 10:01:00,
2013-02-16 02:42:00,40.0,26.0,-100.00,SW,215,4.0,9.0,57,-99.99,,,0.00,0.000000,,2013-02-16 10:42:00,
2013-02-16 02:52:00,40.0,26.0,-100.00,SW,215,4.0,9.0,57,-99.99,,,0.00,0.000000,,2013-02-16 10:52:00,
2013-02-16 03:02:00,40.0,26.0,-100.00,SW,215,4.0,9.0,57,-99.99,,,0.00,0.000000,,2013-02-16 11:02:00,
2013-02-16 03:11:00,40.0,26.0,-100.00,SW,215,4.0,9.0,57,-99.99,,,0.00,0.000000,,2013-02-16 11:11:00,
2013-02-16 03:32:00,39.0,25.0,-100.00,WSW,244,4.0,9.0,57,0.00,,,0.00,0.000000,,2013-02-16 11:32:00,
2013-02-16 03:42:00,39.0,25.0,-100.00,WSW,244,4.0,9.0,57,0.00,,,0.00,0.000000,,2013-02-16 11:42:00,
2013-02-16 03:52:00,39.0,25.0,-100.00,WSW,244,4.0,9.0,57,0.00,,,0.00,0.000000,,2013-02-16 11:52:00,
2013-02-16 04:01:00,39.0,25.0,-100.00,WSW,244,4.0,9.0,57,0.00,,,0.00,0.000000,,2013-02-16 12:01:00,
2013-02-16 04:12:00,39.0,25.0,-100.00,WSW,244,4.0,9.0,57,0.00,,,0.00,0.000000,,2013-02-16 12:12:00,
2013-02-16 04:32:00,36.0,25.0,-100.00,WSW,239,3.0,7.0,64,0.00,,,-99.99,0.000000,,2013-02-16 12:32:00,
2013-02-16 04:42:00,36.0,25.0,-100.00,WSW,239,3.0,7.0,64,0.00,,,-99.99,0.000000,,2013-02-16 12:42:00,
2013-02-16 04:52:00,36.0,25.0,-100.00,WSW,239,3.0,7.0,64,0.00,,,-99.99,0.000000,,2013-02-16 12:52:00,
2013-02-16 05:01:00,36.0,25.0,-100.00,WSW,239,3.0,7.0,64,0.00,,,-99.99,0.000000,,2013-02-16 13:01:00,
2013-02-16 05:11:00,36.0,25.0,-100.00,WSW,239,3.0,7.0,64,0.00,,,-99.99,0.000000,,2013-02-16 13:11:00,
2013-02-16 06:42:00,35.0,23.0,-100.00,SW,214,3.0,8.0,62,-99.99,,,0.00,0.000000,,2013-02-16 14:42:00,
2013-02-16 06:52:00,35.0,23.0,-100.00,SW,214,3.0,8.0,62,-99.99,,,0.00,0.000000,,2013-02-16 14:52:00,
2013-02-16 07:01:00,35.0,23.0,-100.00,SW,214,3.0,8.0,62,-99.99,,,0.00,0.000000,,2013-02-16 15:01:00,
2013-02-16 07:11:00,35.0,23.0,-100.00,SW,214,3.0,8.0,62,-99.99,,,0.00,0.000000,,2013-02-16 15:11:00,
2013-02-16 07:42:00,35.0,23.0,-100.00,SW,223,3.0,7.0,61,0.00,,,0.00,1.000000,,2013-02-16 15:42:00,
2013-02-16 07:52:00,35.0,23.0,-100.00,SW,223,3.0,7.0,61,0.00,,,0.00,1.000000,,2013-02-16 15:52:00,
2013-02-16 08:01:00,35.0,23.0,-100.00,SW,223,3.0,7.0,61,0.00,,,0.00,1.000000,,2013-02-16 16:01:00,
2013-02-16 08:11:00,35.0,23.0,-100.00,SW,223,3.0,7.0,61,0.00,,,0.00,1.000000,,2013-02-16 16:11:00,
2013-02-16 08:32:00,38.0,23.0,-100.00,SW,223,4.0,9.0,55,0.00,,,0.00,20.000000,,2013-02-16 16:32:00,
2013-02-16 08:42:00,38.0,23.0,-100.00,SW,223,4.0,9.0,55,0.00,,,0.00,20.000000,,2013-02-16 16:42:00,
2013-02-16 08:52:00,38.0,23.0,-100.00,SW,223,4.0,9.0,55,0.00,,,0.00,20.000000,,2013-02-16 16:52:00,
2013-02-16 09:01:00,38.0,23.0,-100.00,SW,223,4.0,9.0,55,0.00,,,0.00,20.000000,,2013-02-16 17:01:00,
2013-02-16 09:11:00,38.0,23.0,-100.00,SW,223,4.0,9.0,55,0.00,,,0.00,20.000000,,2013-02-16 17:11:00,
2013-02-16 09:42:00,47.0,25.0,-100.00,SSW,195,3.0,8.0,42,0.00,,,0.00,195.000000,,2013-02-16 17:42:00,
2013-02-16 09:52:00,47.0,25.0,-100.00,SSW,195,3.0,8.0,42,0.00,,,0.00,195.000000,,2013-02-16 17:52:00,
2013-02-16 10:01:00,47.0,25.0,-100.00,SSW,195,3.0,8.0,42,0.00,,,0.00,195.000000,,2013-02-16 18:01:00,
2013-02-16 10:33:00,51.0,26.0,-100.00,West,266,7.0,14.0,37,-99.99,,,0.00,414.000000,,2013-02-16 18:33:00,
2013-02-16 10:42:00,51.0,26.0,-100.00,West,266,7.0,14.0,37,-99.99,,,0.00,414.000000,,2013-02-16 18:42:00,
2013-02-16 10:52:00,51.0,26.0,-100.00,West,266,7.0,14.0,37,-99.99,,,0.00,414.000000,,2013-02-16 18:52:00,
2013-02-16 11:02:00,51.0,26.0,-100.00,West,266,7.0,14.0,37,-99.99,,,0.00,414.000000,,2013-02-16 19:02:00,
2013-02-16 11:11:00,51.0,26.0,-100.00,West,266,7.0,14.0,37,-99.99,,,0.00,414.000000,,2013-02-16 19:11:00,
2013-02-16 11:42:00,49.0,26.0,-100.00,South,191,4.0,14.0,41,0.00,,,0.00,433.000000,,2013-02-16 19:42:00,
2013-02-16 11:52:00,49.0,26.0,-100.00,South,191,4.0,14.0,41,0.00,,,0.00,433.000000,,2013-02-16 19:52:00,
2013-02-16 12:01:00,49.0,26.0,-100.00,South,191,4.0,14.0,41,0.00,,,0.00,433.000000,,2013-02-16 20:01:00,
2013-02-16 12:11:00,49.0,26.0,-100.00,South,191,4.0,14.0,41,0.00,,,0.00,433.000000,,2013-02-16 20:11:00,
2013-02-16 12:42:00,51.0,29.0,-100.00,WNW,288,10.0,15.0,43,0.00,,,0.00,384.000000,,2013-02-16 20:42:00,
2013-02-16 12:52:00,51.0,29.0,-100.00,WNW,288,10.0,15.0,43,0.00,,,0.00,384.000000,,2013-02-16 20:52:00,
2013-02-16 13:02:00,51.0,29.0,-100.00,WNW,288,10.0,15.0,43,0.00,,,0.00,384.000000,,2013-02-16 21:02:00,
2013-02-16 13:11:00,51.0,29.0,-100.00,WNW,288,10.0,15.0,43,0.00,,,0.00,384.000000,,2013-02-16 21:11:00,
2013-02-16 13:42:00,48.0,29.0,-100.00,WNW,286,9.0,16.0,47,0.00,,,0.00,406.000000,,2013-02-16 21:42:00,
2013-02-16 13:52:00,48.0,29.0,-100.00,WNW,286,9.0,16.0,47,0.00,,,0.00,406.000000,,2013-02-16 21:52:00,
2013-02-16 14:01:00,48.0,29.0,-100.00,WNW,286,9.0,16.0,47,0.00,,,0.00,406.000000,,2013-02-16 22:01:00,
2013-02-16 14:11:00,48.0,29.0,-100.00,WNW,286,9.0,16.0,47,0.00,,,0.00,406.000000,,2013-02-16 22:11:00,
2013-02-16 14:32:00,49.0,21.0,-100.00,West,280,10.0,20.0,33,0.00,,,0.00,536.000000,,2013-02-16 22:32:00,
2013-02-16 14:42:00,49.0,21.0,-100.00,West,280,10.0,20.0,33,0.00,,,0.00,536.000000,,2013-02-16 22:42:00,
2013-02-16 14:52:00,49.0,21.0,-100.00,West,280,10.0,20.0,33,0.00,,,0.00,536.000000,,2013-02-16 22:52:00,
2013-02-16 15:02:00,49.0,21.0,-100.00,West,280,10.0,20.0,33,0.00,,,0.00,536.000000,,2013-02-16 23:02:00,
2013-02-16 15:11:00,49.0,21.0,-100.00,West,280,10.0,20.0,33,0.00,,,0.00,536.000000,,2013-02-16 23:11:00,
2013-02-16 15:32:00,48.0,18.0,-100.00,WNW,291,10.0,24.0,30,0.00,,,0.00,434.000000,,2013-02-16 23:32:00,
2013-02-16 15:42:00,48.0,18.0,-100.00,WNW,291,10.0,24.0,30,0.00,,,0.00,434.000000,,2013-02-16 23:42:00,
2013-02-16 15:52:00,48.0,18.0,-100.00,WNW,291,10.0,24.0,30,0.00,,,0.00,434.000000,,2013-02-16 23:52:00,
2013-02-16 16:02:00,48.0,18.0,-100.00,WNW,291,10.0,24.0,30,0.00,,,0.00,434.000000,,2013-02-17 00:02:00,
2013-02-16 16:11:00,48.0,18.0,-100.00,WNW,291,10.0,24.0,30,0.00,,,0.00,434.000000,,2013-02-17 00:11:00,
2013-02-16 16:32:00,43.0,19.0,-100.00,WSW,248,11.0,21.0,38,0.00,,,0.00,311.000000,,2013-02-17 00:32:00,
2013-02-16 16:42:00,43.0,19.0,-100.00,WSW,248,11.0,21.0,38,0.00,,,0.00,311.000000,,2013-02-17 00:42:00,
2013-02-16 16:52:00,43.0,19.0,-100.00,WSW,248,11.0,21.0,38,0.00,,,0.00,311.000000,,2013-02-17 00:52:00,
2013-02-16 17:01:00,43.0,19.0,-100.00,WSW,248,11.0,21.0,38,0.00,,,0.00,311.000000,,2013-02-17 01:01:00,
2013-02-16 17:11:00,43.0,19.0,-100.00,WSW,248,11.0,21.0,38,0.00,,,0.00,311.000000,,2013-02-17 01:11:00,
2013-02-16 18:42:00,36.0,20.0,-100.00,WSW,253,8.0,17.0,52,-99.99,,,0.00,5.000000,,2013-02-17 02:42:00,
2013-02-16 18:52:00,36.0,20.0,-100.00,WSW,253,8.0,17.0,52,-99.99,,,0.00,5.000000,,2013-02-17 02:52:00,
2013-02-16 19:01:00,36.0,20.0,-100.00,WSW,253,8.0,17.0,52,-99.99,,,0.00,5.000000,,2013-02-17 03:01:00,
2013-02-16 19:11:00,36.0,20.0,-100.00,WSW,253,8.0,17.0,52,-99.99,,,0.00,5.000000,,2013-02-17 03:11:00,
2013-02-16 19:32:00,31.0,21.0,-100.00,West,276,2.0,12.0,66,0.00,,,-99.99,0.000000,,2013-02-17 03:32:00,
2013-02-16 19:42:00,31.0,21.0,-100.00,West,276,2.0,12.0,66,0.00,,,-99.99,0.000000,,2013-02-17 03:42:00,
2013-02-16 19:52:00,31.0,21.0,-100.00,West,276,2.0,12.0,66,0.00,,,-99.99,0.000000,,2013-02-17 03:52:00,
2013-02-16 20:01:00,31.0,21.0,-100.00,West,276,2.0,12.0,66,0.00,,,-99.99,0.000000,,2013-02-17 04:01:00,
2013-02-16 20:11:00,31.0,21.0,-100.00,West,276,2.0,12.0,66,0.00,,,-99.99,0.000000,,2013-02-17 04:11:00,
2013-02-16 20:42:00,29.0,21.0,-100.00,WSW,256,3.0,6.0,73,0.00,,,0.00,0.000000,,2013-02-17 04:42:00,
2013-02-16 20:52:00,29.0,21.0,-100.00,WSW,256,3.0,6.0,73,0.00,,,0.00,0.000000,,2013-02-17 04:52:00,
2013-02-16 21:01:00,29.0,21.0,-100.00,WSW,256,3.0,6.0,73,0.00,,,0.00,0.000000,,2013-02-17 05:01:00,
2013-02-16 21:11:00,29.0,21.0,-100.00,WSW,256,3.0,6.0,73,0.00,,,0.00,0.000000,,2013-02-17 05:11:00,
2013-02-16 21:42:00,29.0,21.0,-100.00,East,99,2.0,11.0,71,0.00,,,0.00,0.000000,,2013-02-17 05:42:00,
2013-02-16 21:52:00,29.0,21.0,-100.00,East,99,2.0,11.0,71,0.00,,,0.00,0.000000,,2013-02-17 05:52:00,
2013-02-16 22:02:00,29.0,21.0,-100.00,East,99,2.0,11.0,71,0.00,,,0.00,0.000000,,2013-02-17 06:02:00,
2013-02-16 22:11:00,29.0,21.0,-100.00,East,99,2.0,11.0,71,0.00,,,0.00,0.000000,,2013-02-17 06:11:00,
2013-02-16 22:32:00,26.0,22.0,-100.00,WSW,240,3.0,6.0,83,0.00,,,0.00,0.000000,,2013-02-17 06:32:00,
2013-02-16 22:42:00,26.0,22.0,-100.00,WSW,240,3.0,6.0,83,0.00,,,0.00,0.000000,,2013-02-17 06:42:00,
2013-02-16 22:52:00,26.0,22.0,-100.00,WSW,240,3.0,6.0,83,0.00,,,0.00,0.000000,,2013-02-17 06:52:00,
2013-02-16 23:01:00,26.0,22.0,-100.00,WSW,240,3.0,6.0,83,0.00,,,0.00,0.000000,,2013-02-17 07:01:00,
2013-02-16 23:11:00,26.0,22.0,-100.00,WSW,240,3.0,6.0,83,0.00,,,0.00,0.000000,,2013-02-17 07:11:00,
2013-02-16 23:42:00,25.0,22.0,-100.00,WNW,302,1.0,7.0,87,0.00,,,0.00,0.000000,,2013-02-17 07:42:00,
2013-02-16 23:52:00,25.0,22.0,-100.00,WNW,302,1.0,7.0,87,0.00,,,0.00,0.000000,,2013-02-17 07:52:00,